GW1109 Weather Reports


time (UTC)temp
F
wind
direction
speed
knots
gust
knots
rain 1hr
in
rain 24hr
in
rain mn
in
humidity
%
barometer
mb
20260509101559 39 355 0.0 0.0 0.00 0.00 0.00 71 1013.8
20260509100046 39 0 0.0 0.0 0.00 0.00 0.00 70 1013.6
20260509094546 40 0 0.0 0.0 0.00 0.00 0.00 67 1013.4
20260509093041 42 0 0.0 0.0 0.00 0.00 0.00 64 1013.3
20260509091544 41 0 0.0 0.0 0.00 0.00 0.00 65 1013.2
20260509090049 41 0 0.0 0.9 0.00 0.00 0.00 65 1012.9
20260509084552 41 355 0.9 1.7 0.00 0.00 0.00 65 1012.9
20260509083045 42 286 0.0 2.6 0.00 0.00 0.00 63 1012.8
20260509081548 42 278 0.9 2.6 0.00 0.00 0.00 64 1013.1
20260509080050 40 273 2.6 5.2 0.00 0.00 0.00 68 1013.3
20260509074543 39 228 0.9 3.5 0.00 0.00 0.00 68 1013.3
20260509073048 39 222 1.7 2.6 0.00 0.00 0.00 67 1013.1
20260509071543 40 265 1.7 2.6 0.00 0.00 0.00 65 1013.0
20260509070051 41 0 0.0 1.7 0.00 0.00 0.00 62 1013.0
20260509064553 42 0 0.0 2.6 0.00 0.00 0.00 60 1013.0
20260509063041 41 258 0.9 2.6 0.00 0.00 0.00 60 1012.9
20260509061601 42 242 1.7 2.6 0.00 0.00 0.00 58 1012.9
20260509060048 42 241 0.9 2.6 0.00 0.00 0.00 55 1012.8
20260509054606 42 0 0.0 0.0 0.00 0.00 0.00 53 1012.9
20260509053052 43 0 0.0 0.0 0.00 0.00 0.00 52 1012.7
20260509051544 43 0 0.0 0.0 0.00 0.00 0.00 55 1012.7
20260509050052 43 0 0.0 0.0 0.00 0.00 0.00 53 1012.7
20260509044548 44 0 0.0 0.0 0.00 0.00 0.00 53 1012.7
20260509043044 46 0 0.0 0.9 0.00 0.00 0.00 45 1012.6
20260509041542 45 0 0.0 0.0 0.00 0.00 0.00 44 1012.7
20260509040049 45 0 0.0 0.0 0.00 0.00 0.00 46 1012.5
20260509034541 45 0 0.0 1.7 0.00 0.00 0.00 47 1012.3
20260509033048 44 229 0.0 2.6 0.00 0.00 0.00 49 1012.2
20260509031605 44 229 0.9 1.7 0.00 0.00 0.00 49 1012.1
20260509030045 44 229 0.9 1.7 0.00 0.00 0.00 51 1012.1
20260509024541 44 229 1.7 5.2 0.00 0.00 0.00 55 1012.0
20260509023040 45 0 0.0 0.0 0.00 0.00 0.00 48 1011.7
20260509021547 45 0 0.0 0.0 0.00 0.00 0.00 45 1011.5
20260509020048 45 0 0.0 0.0 0.00 0.00 0.00 44 1011.1
20260509014544 44 0 0.0 0.0 0.00 0.00 0.00 44 1011.0
20260509013044 44 0 0.0 0.0 0.00 0.00 0.00 44 1010.8
20260509011543 44 0 0.0 0.0 0.00 0.00 0.00 47 1010.6
20260509010049 45 0 0.0 0.0 0.00 0.00 0.00 44 1010.4
20260509004550 46 0 0.0 0.0 0.00 0.00 0.00 40 1010.2
20260509003049 47 0 0.0 2.6 0.00 0.00 0.00 39 1009.9
20260509001545 48 0 1.7 4.3 0.00 0.00 0.00 38 1009.6
20260509000049 49 317 1.7 4.3 0.00 0.00 0.00 37 1009.6
20260508234548 50 340 2.6 7.8 0.00 0.00 0.00 40 1009.4
20260508233055 52 308 2.6 7.8 0.00 0.00 0.00 33 1009.1
20260508231546 52 304 4.3 9.6 0.00 0.00 0.00 32 1009.0
20260508230122 53 281 5.2 13.0 0.00 0.00 0.00 31 1008.9
20260508224549 53 317 7.0 14.8 0.00 0.00 0.00 32 1009.0
20260508223044 54 265 6.1 13.0 0.00 0.00 0.00 31 1008.8
20260508221541 54 247 7.0 12.2 0.00 0.00 0.00 28 1008.7
20260508220109 54 252 7.0 14.8 0.00 0.00 0.00 30 1008.6
20260508214549 53 306 8.7 17.4 0.00 0.00 0.00 31 1008.6
20260508213046 54 298 11.3 20.9 0.00 0.00 0.00 28 1008.4
20260508211547 54 306 9.6 18.2 0.00 0.00 0.00 30 1008.4
20260508210045 54 283 6.1 13.9 0.00 0.00 0.00 33 1008.2
20260508204543 54 313 6.1 12.2 0.00 0.00 0.00 35 1008.2
20260508203048 54 275 9.6 17.4 0.00 0.00 0.00 31 1007.9
20260508201548 53 316 7.0 18.2 0.00 0.00 0.00 34 1007.9
20260508200046 54 277 7.8 15.6 0.00 0.00 0.00 34 1007.8
20260508194542 53 325 7.0 18.2 0.00 0.00 0.00 34 1007.7
20260508193047 54 309 8.7 17.4 0.00 0.00 0.00 33 1007.5
20260508191543 54 284 8.7 18.2 0.00 0.00 0.00 31 1007.7
20260508190103 54 326 5.2 16.5 0.00 0.00 0.00 35 1007.5
20260508184551 56 307 11.3 20.9 0.00 0.00 0.00 33 1007.4
20260508183048 55 266 10.4 20.0 0.00 0.00 0.00 34 1007.3
20260508181605 55 316 11.3 19.1 0.00 0.00 0.00 31 1007.3
20260508180048 54 323 8.7 16.5 0.00 0.00 0.00 31 1007.3
20260508174549 54 254 7.0 13.0 0.00 0.00 0.00 29 1007.3
20260508173046 54 290 6.1 17.4 0.00 0.00 0.00 28 1007.2
20260508171545 54 261 5.2 13.9 0.00 0.00 0.00 31 1007.2
20260508170046 54 5 4.3 18.2 0.00 0.00 0.00 29 1007.0
20260508164541 53 286 7.8 13.9 0.00 0.00 0.00 33 1007.0
20260508163048 53 308 6.1 11.3 0.00 0.00 0.00 31 1007.3
20260508161546 53 344 5.2 16.5 0.00 0.00 0.00 33 1007.4
20260508160047 53 242 7.8 14.8 0.00 0.00 0.00 31 1007.4
20260508154546 52 316 7.8 13.0 0.00 0.00 0.00 36 1007.6
20260508153044 53 254 7.8 13.0 0.00 0.00 0.00 40 1007.7
20260508151540 52 286 6.1 14.8 0.00 0.00 0.00 37 1007.6
20260508150046 53 295 8.7 16.5 0.00 0.00 0.00 40 1007.8
20260508144548 52 282 7.0 13.0 0.00 0.00 0.00 38 1007.9
20260508143051 52 311 9.6 17.4 0.00 0.00 0.00 35 1007.9
20260508141555 52 315 8.7 17.4 0.00 0.00 0.00 37 1007.9
20260508140041 52 254 7.8 14.8 0.00 0.00 0.00 40 1008.1
20260508134558 51 256 7.0 13.9 0.00 0.00 0.00 40 1008.2
20260508133045 51 279 7.8 12.2 0.00 0.00 0.00 43 1008.4
20260508131546 50 288 6.1 12.2 0.00 0.00 0.00 45 1008.5
20260508130046 50 273 6.1 10.4 0.00 0.00 0.00 47 1008.5
20260508124542 49 269 6.1 11.3 0.00 0.00 0.00 47 1008.6
20260508123058 48 259 3.5 9.6 0.00 0.00 0.00 50 1008.6
20260508121546 47 238 5.2 8.7 0.00 0.00 0.00 51 1008.6
20260508120050 46 285 3.5 7.0 0.00 0.00 0.00 52 1008.5
20260508114549 45 246 3.5 7.0 0.00 0.00 0.00 55 1008.5
20260508113045 44 286 4.3 7.8 0.00 0.00 0.00 54 1008.5
20260508111548 43 269 3.5 6.1 0.00 0.00 0.00 57 1008.4
20260508110048 41 248 1.7 3.5 0.00 0.00 0.00 61 1008.3
20260508104546 39 275 1.7 3.5 0.00 0.00 0.00 64 1008.2
20260508103047 38 271 2.6 5.2 0.00 0.00 0.00 65 1008.0